Wind_Speed
40 38 37 36 35 36 35 35 36 36 36 37 37 38 39 40 41 43 44 45 46 47 49 50 52 54 56 58 60 61 61 61 61 62 62 61 61 60
40 38 37 37 36 36 36 36 36 37 37 37 38 39 40 41 42 43 44 45 47 48 49 51 53 55 57 59 60 61 61 62 62 62 62 61 61 58
39 38 37 37 37 36 36 37 37 37 37 37 38 39 40 41 41 43 44 45 47 48 50 52 54 56 58 59 60 61 61 62 62 62 62 61 59 57
39 38 38 38 37 36 37 37 36 36 37 38 38 38 39 40 42 43 44 45 46 48 51 52 54 57 58 59 60 61 62 62 62 62 62 60 58 55
39 38 38 37 37 36 36 36 36 36 37 37 38 38 40 41 42 43 44 45 47 49 51 53 55 57 58 59 61 62 62 62 62 62 60 58 56 54
39 38 38 37 37 36 36 36 36 36 37 37 37 38 40 41 42 42 44 46 47 50 52 54 56 57 58 60 61 62 61 61 62 61 59 56 54 52
39 38 38 37 37 36 35 35 36 36 36 37 38 38 39 40 41 42 44 46 48 50 52 54 56 57 58 60 61 62 61 62 61 60 57 54 52 50
39 38 37 36 35 34 34 35 36 36 36 37 37 38 39 39 41 43 45 46 48 50 52 54 55 57 59 61 62 62 62 61 60 57 54 51 50 49
38 37 36 34 34 34 35 36 36 35 36 37 37 38 39 40 42 44 46 47 49 51 52 53 55 58 60 62 62 62 61 60 58 54 51 49 48 47
38 37 36 35 34 34 34 35 35 35 35 36 36 38 39 40 42 44 45 47 50 51 52 53 55 58 61 61 61 61 59 57 54 50 48 47 45 45
36 36 35 35 34 34 34 33 33 34 34 34 36 38 39 41 42 44 46 48 49 50 51 53 55 58 60 60 60 58 56 53 49 47 45 44 44 43
36 35 34 34 34 33 33 32 32 33 33 34 36 37 39 40 42 43 45 47 48 49 50 53 56 58 58 58 57 54 51 48 46 44 43 42 42 40
35 34 33 33 33 32 31 32 32 32 32 34 36 37 39 40 41 43 45 46 47 48 51 54 56 57 57 55 52 50 47 45 44 42 41 41 39 37
35 34 33 33 33 32 32 32 32 32 33 34 35 37 38 40 41 43 44 45 46 49 52 54 55 55 54 51 48 47 46 44 42 40 39 38 37 36
35 34 33 32 33 33 32 32 31 32 32 33 35 37 38 40 41 42 43 44 46 49 52 53 54 53 51 48 45 44 43 41 40 38 37 36 35 34
35 34 33 33 32 32 31 30 30 31 32 33 34 36 38 39 40 41 41 43 46 49 52 52 52 50 48 46 45 43 41 39 38 36 34 34 34 33
34 33 32 31 30 30 29 30 30 31 31 32 34 36 36 37 38 38 40 43 46 49 50 50 49 47 46 44 43 42 40 38 36 33 33 33 33 32
32 31 30 28 27 27 28 28 29 30 30 32 34 35 36 36 36 38 40 43 46 48 48 47 46 45 44 42 41 40 38 36 33 32 32 32 31 30
32 31 29 28 26 27 28 28 29 29 30 32 33 34 34 34 35 37 40 42 44 46 45 44 43 42 41 40 39 38 35 33 31 31 30 30 29 28
32 31 30 29 27 27 27 28 28 29 30 31 32 32 33 33 34 37 39 41 42 43 43 42 41 40 38 37 37 36 33 30 29 30 29 29 28 28
30 30 29 28 27 27 27 27 28 28 29 30 30 30 31 32 33 36 38 39 40 41 40 39 38 37 36 36 35 33 31 29 28 28 28 28 28 27
28 28 28 28 27 27 27 26 27 27 28 28 28 28 29 30 33 35 36 38 39 38 37 37 35 34 34 34 33 31 29 27 27 27 28 28 27 26
28 27 26 26 26 26 25 25 25 25 26 26 26 27 28 29 31 33 35 36 36 35 34 33 32 32 32 32 31 29 27 26 26 26 27 27 27 26
Wind_Direction
251 254 258 261 265 268 272 276 281 284 287 290 293 296 299 302 305 307 309 310 312 313 314 315 316 317 318 319 319 320 320 320 320 320 320 320 320 319
251 254 257 261 264 269 273 277 281 285 287 290 293 297 299 302 305 307 309 311 312 314 314 315 316 318 319 319 320 320 321 321 321 321 320 320 320 320
251 255 258 261 265 269 274 278 281 284 287 290 293 296 299 302 305 307 309 311 312 314 315 316 317 318 319 320 321 321 321 321 321 321 321 321 321 320
251 254 257 261 265 270 274 278 281 284 287 290 293 296 299 302 305 307 309 311 313 314 315 316 318 319 320 321 321 321 321 321 321 321 321 321 320 320
252 255 257 261 265 270 274 277 280 284 287 290 293 296 299 302 305 307 310 312 313 315 316 317 318 320 321 322 322 322 322 322 322 321 321 320 320 320
252 254 257 261 265 270 274 278 281 284 287 290 292 296 299 302 305 308 310 313 314 315 316 318 319 320 322 322 322 322 322 322 322 322 321 321 321 321
251 254 257 261 265 269 273 277 281 284 287 289 292 295 299 302 305 308 311 313 315 316 317 318 319 321 322 323 323 323 323 323 322 322 322 322 322 322
251 255 257 260 265 269 272 277 281 284 287 290 292 295 299 303 305 308 311 313 315 316 317 319 320 322 323 323 323 323 323 323 322 323 323 323 323 322
252 253 256 260 265 269 272 277 280 284 287 290 293 296 300 303 306 309 312 314 315 317 318 320 321 322 323 323 324 324 324 323 324 324 324 324 323 323
251 254 257 261 266 270 274 277 280 283 287 290 294 297 300 304 307 310 312 314 316 318 319 321 322 323 324 324 325 325 324 325 326 326 326 326 326 326
251 255 258 262 265 269 273 276 278 282 286 290 295 298 301 305 308 310 313 315 317 318 320 321 323 324 324 325 325 325 326 327 328 328 329 329 329 330
251 254 257 261 264 267 271 275 278 282 287 291 295 299 303 306 309 312 314 316 317 318 320 322 324 325 325 325 326 327 329 330 330 331 331 331 332 333
249 253 256 259 262 266 270 275 279 283 287 291 296 300 303 306 309 312 314 316 318 319 322 324 325 326 326 327 328 329 330 331 332 332 332 333 334 336
247 251 256 260 264 266 269 273 277 282 287 292 296 300 304 307 309 312 314 316 318 321 323 325 326 327 328 329 329 330 331 332 332 333 334 335 337 338
247 252 256 260 264 266 269 272 276 281 287 292 297 301 304 307 310 312 315 317 319 322 325 326 327 328 329 330 330 331 332 332 333 334 336 338 339 340
248 252 257 261 264 266 269 272 276 282 288 293 298 301 304 307 310 313 315 318 321 323 325 326 328 329 330 331 332 332 333 333 333 335 337 340 341 341
247 251 256 260 263 266 268 273 278 282 288 294 298 302 305 308 310 313 315 318 321 324 326 327 328 330 331 332 333 334 334 334 335 336 338 340 341 342
246 249 252 256 261 265 269 275 280 284 289 294 299 303 305 308 310 313 317 320 323 325 327 328 329 331 332 333 334 335 336 336 337 338 340 342 343 344
245 246 249 254 260 265 269 275 281 286 291 295 298 303 306 309 311 314 318 321 324 326 328 329 331 332 333 334 336 337 337 338 339 341 343 344 345 347
243 245 249 253 258 264 268 275 281 287 291 295 299 303 306 308 311 315 319 322 325 328 330 331 333 334 335 336 338 339 340 340 341 343 345 347 348 348
242 245 248 252 257 262 268 275 281 286 291 295 299 303 307 310 313 317 321 325 327 330 331 332 334 336 338 339 340 342 342 343 344 346 347 348 349 349
241 245 247 251 256 262 269 276 282 287 292 296 299 302 307 311 316 319 322 326 328 331 332 334 336 339 340 342 343 344 345 345 347 348 349 350 351 352
239 243 247 251 258 263 270 277 282 288 292 295 298 303 308 313 317 321 324 327 330 332 334 336 338 340 342 344 345 346 346 347 348 348 349 351 352 353
Height
5735 5737 5740 5742 5743 5744 5744 5744 5744 5743 5742 5739 5737 5734 5730 5727 5722 5718 5713 5707 5701 5695 5688 5681 5673 5665 5657 5648 5639 5629 5619 5609 5599 5589 5579 5569 5559 5549
5726 5729 5732 5734 5735 5736 5736 5736 5736 5735 5734 5731 5729 5726 5722 5719 5714 5710 5705 5699 5693 5687 5680 5672 5664 5656 5647 5638 5628 5618 5608 5598 5587 5577 5567 5557 5547 5537
5718 5721 5724 5726 5727 5728 5728 5728 5728 5727 5725 5723 5721 5718 5714 5710 5706 5702 5697 5691 5685 5678 5671 5663 5655 5647 5637 5628 5618 5607 5597 5587 5576 5566 5555 5546 5535 5526
5710 5713 5716 5717 5719 5720 5720 5720 5719 5718 5717 5716 5713 5710 5706 5703 5698 5694 5688 5683 5676 5669 5662 5654 5646 5637 5627 5617 5607 5597 5586 5576 5565 5555 5545 5535 5525 5515
5702 5705 5707 5709 5711 5712 5712 5712 5711 5710 5709 5708 5705 5702 5699 5695 5691 5686 5680 5674 5668 5660 5653 5645 5637 5627 5618 5608 5597 5586 5575 5565 5555 5544 5533 5523 5514 5504
5693 5696 5699 5701 5703 5703 5704 5704 5703 5702 5701 5699 5697 5694 5691 5687 5682 5678 5672 5666 5659 5652 5643 5636 5627 5617 5608 5598 5588 5576 5565 5554 5543 5532 5522 5512 5503 5494
5685 5688 5690 5692 5694 5695 5696 5696 5695 5694 5693 5691 5689 5686 5683 5679 5675 5670 5664 5658 5651 5643 5635 5626 5618 5608 5598 5588 5576 5565 5554 5543 5532 5522 5511 5502 5493 5484
5676 5679 5682 5684 5686 5687 5687 5688 5687 5686 5685 5683 5681 5678 5675 5671 5666 5661 5656 5650 5644 5637 5627 5617 5608 5598 5588 5578 5567 5555 5544 5532 5522 5511 5501 5492 5483 5475
5668 5671 5673 5676 5677 5679 5679 5679 5679 5678 5677 5675 5673 5670 5667 5663 5658 5653 5647 5640 5634 5626 5618 5608 5598 5588 5578 5567 5556 5545 5534 5522 5512 5502 5492 5483 5474 5466
5659 5662 5665 5667 5669 5670 5671 5671 5671 5670 5669 5667 5665 5662 5658 5654 5649 5644 5638 5632 5624 5616 5608 5600 5590 5579 5568 5557 5545 5534 5523 5513 5502 5493 5484 5475 5467 5458
5651 5654 5657 5659 5661 5662 5663 5663 5663 5662 5661 5659 5657 5653 5650 5645 5641 5635 5630 5623 5616 5608 5599 5591 5582 5571 5559 5547 5536 5525 5514 5504 5495 5486 5477 5469 5460 5452
5643 5646 5649 5651 5653 5654 5655 5655 5655 5654 5653 5651 5649 5645 5641 5637 5632 5627 5621 5614 5607 5600 5591 5582 5572 5562 5552 5539 5527 5517 5506 5497 5488 5480 5471 5463 5455 5446
5634 5638 5641 5643 5645 5646 5647 5647 5647 5646 5645 5643 5640 5637 5633 5629 5624 5618 5612 5605 5598 5590 5582 5573 5563 5552 5541 5531 5520 5510 5501 5492 5483 5474 5466 5458 5450 5442
5626 5630 5632 5635 5637 5638 5639 5639 5639 5638 5637 5635 5632 5629 5625 5621 5616 5610 5603 5596 5589 5582 5573 5564 5554 5544 5534 5523 5513 5504 5494 5486 5478 5469 5461 5453 5446 5438
5618 5621 5624 5627 5629 5630 5631 5631 5631 5630 5629 5627 5625 5622 5618 5613 5607 5601 5595 5588 5581 5573 5565 5555 5545 5535 5525 5516 5507 5499 5490 5481 5473 5465 5458 5450 5442 5435
5610 5613 5616 5619 5620 5622 5623 5623 5623 5623 5622 5620 5617 5614 5609 5604 5599 5593 5587 5580 5573 5565 5556 5547 5537 5528 5518 5509 5501 5492 5484 5477 5469 5461 5454 5447 5439 5432
5602 5606 5609 5611 5613 5614 5615 5616 5616 5615 5614 5612 5609 5605 5601 5596 5591 5586 5580 5573 5566 5557 5548 5538 5529 5520 5512 5504 5495 5487 5478 5471 5464 5457 5450 5443 5436 5429
5595 5598 5601 5603 5605 5607 5608 5608 5608 5608 5606 5604 5601 5597 5593 5589 5584 5578 5572 5565 5558 5549 5540 5531 5522 5513 5505 5497 5490 5482 5474 5467 5460 5453 5447 5440 5433 5427
5587 5591 5594 5596 5598 5600 5601 5601 5601 5600 5598 5596 5593 5590 5585 5581 5576 5571 5565 5558 5550 5542 5533 5525 5516 5508 5501 5493 5485 5478 5470 5463 5456 5450 5444 5438 5431 5425
5580 5583 5586 5589 5592 5593 5594 5594 5593 5592 5591 5588 5585 5582 5578 5574 5569 5564 5557 5550 5543 5535 5526 5518 5511 5503 5496 5489 5481 5474 5467 5460 5454 5448 5442 5436 5429 5423
5572 5576 5579 5582 5584 5586 5586 5587 5586 5585 5583 5581 5578 5574 5571 5567 5562 5557 5550 5543 5536 5529 5521 5513 5506 5499 5491 5484 5477 5470 5464 5458 5452 5446 5440 5434 5428 5422
5565 5569 5572 5575 5577 5579 5579 5579 5579 5578 5576 5573 5571 5568 5564 5560 5556 5550 5544 5537 5531 5523 5516 5509 5501 5495 5488 5481 5474 5468 5461 5456 5450 5444 5439 5433 5428 5422
5558 5562 5565 5568 5570 5571 5572 5572 5571 5570 5568 5567 5564 5561 5558 5554 5549 5544 5538 5532 5525 5518 5512 5505 5498 5492 5485 5479 5472 5466 5460 5454 5449 5444 5438 5432 5427 5421